Weather in Saksahan

Ukraine / Dnipropetrovsk Region     48°20′57″N   33°49′59″E
temp.,
°C
wind,
m/s
gust,
m/s
humid.,
%
clouds,
%
prec.,
mm/h
press.,
hPa
HPBL,
m
8 march, mon
mon823:00−1wsw7146622 0.0 1016430
02:00−1wsw6146544 0.0 1015391
05:00−2wsw6117876 0.0 1014279
08:000wsw6127081 0.0 1013548
11:00+3wsw711646 0.0 10121159
14:00+3w796934 0.0 10111132
17:00+1wnw488099 0.1 1012567
20:00−1w4987100 0.1 1013317
9 march, tue
tue923:00−1wnw488699 0.0 1014282
02:00−3wnw5108260 0.0 1015528
05:00−4nw611807 0.0 1016638
08:00−3nnw69673 0.0 1018894
11:00−1nw675732 0.0 10191260
14:000nw675566 0.1 10201423
17:00−2nnw575980 0.0 10211150
20:00−4nnw476940 0.0 1023562
10 march, wed
wed1023:00−5n456936 0.0 1025596
02:00−5n356818 0.0 1026525
05:00−6nne34670 0.0 1026485
08:00−5ne346128 0.0 1027518
11:00−3ene3345100 0.0 1027874
14:00−1ne2338100 0.0 10261031
17:00−2ene344299 0.0 10251030
20:00−3ne355297 0.0 1026210
11 march, thu
thu1123:00−3ne355172 0.0 1026243
02:00−4ne365266 0.0 1027238
05:00−5ne35560 0.0 1027160
08:00−3ne34490 0.0 1029405
11:00−1ne333930 0.0 1029997
14:00+1nne223635 0.0 10281419
17:000nne22460 0.0 102899
20:00−3e35590 0.0 1029124
12 march, fri
fri1223:00−3se59630 0.0 1030425
02:00−4sse69590 0.0 1029467
05:00−4sse695581 0.0 1029443
08:00−3sse7114890 0.0 1029569
11:00−1s81148100 0.0 1028960
14:00+2s91345100 0.0 10251284
17:00+1s81253100 0.0 10241087
20:00−3s101678100 0.3 1024653